| time (UTC) | temp F | wind direction | speed knots | gust knots | rain 1hr in | rain 24hr in | rain mn in | humidity % | barometer mb |
| 20260510192526 | 87 | 305 | 4.3 | 9.6 | 0.00 | 0.00 | 0.00 | 15 | 1017.1 |
| 20260510192026 | 87 | 280 | 5.2 | 11.3 | 0.00 | 0.00 | 0.00 | 14 | 1017.4 |
| 20260510191542 | 87 | 341 | 5.2 | 11.3 | 0.00 | 0.00 | 0.00 | 12 | 1017.3 |
| 20260510191025 | 87 | 272 | 3.5 | 10.4 | 0.00 | 0.00 | 0.00 | 13 | 1017.5 |
| 20260510190524 | 87 | 37 | 4.3 | 10.4 | 0.00 | 0.00 | 0.00 | 12 | 1017.7 |
| 20260510190024 | 87 | 337 | 4.3 | 8.7 | 0.00 | 0.00 | 0.00 | 13 | 1017.7 |
| 20260510185524 | 87 | 281 | 3.5 | 8.7 | 0.00 | 0.00 | 0.00 | 12 | 1017.7 |
| 20260510185024 | 87 | 314 | 4.3 | 11.3 | 0.00 | 0.00 | 0.00 | 13 | 1017.7 |
| 20260510184523 | 86 | 266 | 2.6 | 11.3 | 0.00 | 0.00 | 0.00 | 13 | 1017.7 |
| 20260510184023 | 86 | 333 | 4.3 | 12.2 | 0.00 | 0.00 | 0.00 | 13 | 1017.8 |
| 20260510183526 | 87 | 4 | 5.2 | 12.2 | 0.00 | 0.00 | 0.00 | 11 | 1017.9 |
| 20260510183022 | 87 | 359 | 0.9 | 6.1 | 0.00 | 0.00 | 0.00 | 13 | 1018.1 |
| 20260510182553 | 86 | 163 | 1.7 | 7.0 | 0.00 | 0.00 | 0.00 | 13 | 1018.0 |
| 20260510182049 | 86 | 220 | 4.3 | 7.0 | 0.00 | 0.00 | 0.00 | 14 | 1018.1 |
| 20260510181549 | 85 | 175 | 2.6 | 10.4 | 0.00 | 0.00 | 0.00 | 15 | 1018.3 |
| 20260510181049 | 85 | 328 | 6.1 | 10.4 | 0.00 | 0.00 | 0.00 | 15 | 1018.3 |
| 20260510180549 | 85 | 339 | 0.9 | 6.1 | 0.00 | 0.00 | 0.00 | 15 | 1018.4 |
| 20260510180053 | 86 | 337 | 2.6 | 6.1 | 0.00 | 0.00 | 0.00 | 15 | 1018.4 |
| 20260510175549 | 86 | 298 | 0.9 | 5.2 | 0.00 | 0.00 | 0.00 | 16 | 1018.6 |
| 20260510175045 | 84 | 330 | 1.7 | 8.7 | 0.00 | 0.00 | 0.00 | 17 | 1018.7 |
| 20260510174551 | 84 | 18 | 4.3 | 8.7 | 0.00 | 0.00 | 0.00 | 17 | 1018.7 |
| 20260510174044 | 85 | 246 | 1.7 | 8.7 | 0.00 | 0.00 | 0.00 | 17 | 1018.7 |
| 20260510173544 | 85 | 273 | 2.6 | 7.0 | 0.00 | 0.00 | 0.00 | 17 | 1018.7 |
| 20260510173044 | 85 | 227 | 0.9 | 7.0 | 0.00 | 0.00 | 0.00 | 16 | 1018.8 |
| 20260510172546 | 85 | 245 | 2.6 | 7.0 | 0.00 | 0.00 | 0.00 | 16 | 1018.8 |
| 20260510172043 | 84 | 36 | 0.0 | 7.0 | 0.00 | 0.00 | 0.00 | 17 | 1018.8 |
| 20260510171545 | 84 | 324 | 3.5 | 8.7 | 0.00 | 0.00 | 0.00 | 16 | 1018.9 |
| 20260510171046 | 84 | 270 | 1.7 | 8.7 | 0.00 | 0.00 | 0.00 | 15 | 1018.8 |
| 20260510170548 | 84 | 322 | 1.7 | 7.0 | 0.00 | 0.00 | 0.00 | 15 | 1018.8 |
| 20260510170047 | 84 | 15 | 2.6 | 7.0 | 0.00 | 0.00 | 0.00 | 14 | 1018.8 |
| 20260510165541 | 84 | 305 | 2.6 | 9.6 | 0.00 | 0.00 | 0.00 | 13 | 1018.7 |
| 20260510165040 | 84 | 267 | 3.5 | 9.6 | 0.00 | 0.00 | 0.00 | 13 | 1018.9 |
| 20260510164538 | 84 | 301 | 2.6 | 7.8 | 0.00 | 0.00 | 0.00 | 14 | 1018.9 |
| 20260510164038 | 84 | 321 | 1.7 | 5.2 | 0.00 | 0.00 | 0.00 | 15 | 1018.9 |
| 20260510163537 | 84 | 299 | 1.7 | 6.1 | 0.00 | 0.00 | 0.00 | 15 | 1018.8 |
| 20260510163036 | 83 | 267 | 0.9 | 5.2 | 0.00 | 0.00 | 0.00 | 16 | 1018.7 |
| 20260510162534 | 82 | 347 | 1.7 | 5.2 | 0.00 | 0.00 | 0.00 | 15 | 1018.7 |
| 20260510162035 | 82 | 24 | 1.7 | 5.2 | 0.00 | 0.00 | 0.00 | 17 | 1018.7 |
| 20260510161533 | 82 | 354 | 2.6 | 5.2 | 0.00 | 0.00 | 0.00 | 16 | 1018.7 |
| 20260510161035 | 82 | 103 | 1.7 | 4.3 | 0.00 | 0.00 | 0.00 | 18 | 1018.7 |
| 20260510160532 | 82 | 29 | 1.7 | 3.5 | 0.00 | 0.00 | 0.00 | 23 | 1018.6 |
| 20260510160030 | 82 | 359 | 1.7 | 3.5 | 0.00 | 0.00 | 0.00 | 25 | 1018.5 |
| 20260510155528 | 83 | 278 | 0.9 | 2.6 | 0.00 | 0.00 | 0.00 | 25 | 1018.5 |
| 20260510155026 | 83 | 278 | 0.0 | 2.6 | 0.00 | 0.00 | 0.00 | 30 | 1018.5 |
| 20260510154527 | 82 | 243 | 0.9 | 2.6 | 0.00 | 0.00 | 0.00 | 30 | 1018.4 |
| 20260510154026 | 82 | 144 | 0.0 | 2.6 | 0.00 | 0.00 | 0.00 | 31 | 1018.3 |
| 20260510153525 | 82 | 264 | 0.0 | 2.6 | 0.00 | 0.00 | 0.00 | 31 | 1018.3 |
| 20260510153022 | 81 | 265 | 0.9 | 2.6 | 0.00 | 0.00 | 0.00 | 32 | 1018.3 |
| 20260510152524 | 80 | 311 | 0.9 | 2.6 | 0.00 | 0.00 | 0.00 | 32 | 1018.2 |
| 20260510152024 | 80 | 310 | 0.0 | 3.5 | 0.00 | 0.00 | 0.00 | 33 | 1018.2 |
| 20260510151520 | 80 | 310 | 1.7 | 3.5 | 0.00 | 0.00 | 0.00 | 33 | 1018.4 |
| 20260510151018 | 79 | 47 | 0.0 | 1.7 | 0.00 | 0.00 | 0.00 | 34 | 1018.4 |
| 20260510150518 | 79 | 47 | 0.0 | 2.6 | 0.00 | 0.00 | 0.00 | 35 | 1018.5 |
| 20260510150017 | 78 | 47 | 0.9 | 2.6 | 0.00 | 0.00 | 0.00 | 35 | 1018.6 |
| 20260510145513 | 77 | 47 | 0.0 | 1.7 | 0.00 | 0.00 | 0.00 | 37 | 1018.5 |
| 20260510145011 | 77 | 47 | 0.0 | 2.6 | 0.00 | 0.00 | 0.00 | 38 | 1018.5 |
| 20260510144512 | 76 | 47 | 0.9 | 2.6 | 0.00 | 0.00 | 0.00 | 37 | 1018.5 |
| 20260510144009 | 76 | 47 | 0.0 | 2.6 | 0.00 | 0.00 | 0.00 | 38 | 1018.6 |
| 20260510143508 | 76 | 47 | 0.9 | 2.6 | 0.00 | 0.00 | 0.00 | 40 | 1018.6 |
| 20260510143016 | 75 | 47 | 0.0 | 3.5 | 0.00 | 0.00 | 0.00 | 38 | 1018.5 |
| 20260510142512 | 75 | 47 | 0.0 | 3.5 | 0.00 | 0.00 | 0.00 | 39 | 1018.6 |
| 20260510142007 | 76 | 146 | 0.0 | 1.7 | 0.00 | 0.00 | 0.00 | 39 | 1018.5 |
| 20260510141506 | 75 | 145 | 0.0 | 0.9 | 0.00 | 0.00 | 0.00 | 41 | 1018.6 |
| 20260510141003 | 75 | 146 | 0.0 | 0.9 | 0.00 | 0.00 | 0.00 | 41 | 1018.6 |
| 20260510140507 | 75 | 147 | 0.0 | 1.7 | 0.00 | 0.00 | 0.00 | 43 | 1018.5 |
| 20260510140002 | 74 | 145 | 0.0 | 1.7 | 0.00 | 0.00 | 0.00 | 43 | 1018.5 |
| 20260510135503 | 73 | 146 | 0.0 | 1.7 | 0.00 | 0.00 | 0.00 | 44 | 1018.5 |
| 20260510135058 | 73 | 147 | 0.0 | 1.7 | 0.00 | 0.00 | 0.00 | 44 | 1018.5 |
| 20260510134556 | 73 | 147 | 0.0 | 0.9 | 0.00 | 0.00 | 0.00 | 46 | 1018.4 |
| 20260510134056 | 72 | 145 | 0.0 | 0.9 | 0.00 | 0.00 | 0.00 | 46 | 1018.4 |
| 20260510133554 | 71 | 147 | 0.0 | 2.6 | 0.00 | 0.00 | 0.00 | 47 | 1018.4 |
| 20260510133053 | 70 | 147 | 0.0 | 2.6 | 0.00 | 0.00 | 0.00 | 48 | 1018.4 |
| 20260510132052 | 68 | 146 | 0.0 | 1.7 | 0.00 | 0.00 | 0.00 | 52 | 1018.3 |
| 20260510131548 | 67 | 145 | 0.0 | 0.0 | 0.00 | 0.00 | 0.00 | 54 | 1018.3 |
| 20260510131048 | 67 | 146 | 0.0 | 0.9 | 0.00 | 0.00 | 0.00 | 55 | 1018.2 |
| 20260510130547 | 67 | 146 | 0.0 | 1.7 | 0.00 | 0.00 | 0.00 | 55 | 1018.2 |
| 20260510130046 | 67 | 147 | 0.0 | 1.7 | 0.00 | 0.00 | 0.00 | 56 | 1018.1 |
| 20260510125545 | 66 | 146 | 0.0 | 1.7 | 0.00 | 0.00 | 0.00 | 58 | 1018.1 |
| 20260510125042 | 66 | 147 | 0.0 | 0.9 | 0.00 | 0.00 | 0.00 | 58 | 1017.9 |
| 20260510124550 | 66 | 145 | 0.0 | 1.7 | 0.00 | 0.00 | 0.00 | 60 | 1018.0 |
| 20260510124040 | 65 | 146 | 0.0 | 1.7 | 0.00 | 0.00 | 0.00 | 61 | 1017.9 |
| 20260510123541 | 64 | 147 | 0.0 | 1.7 | 0.00 | 0.00 | 0.00 | 61 | 1017.9 |
| 20260510123039 | 64 | 146 | 0.0 | 1.7 | 0.00 | 0.00 | 0.00 | 61 | 1017.8 |
| 20260510122539 | 64 | 147 | 0.0 | 0.0 | 0.00 | 0.00 | 0.00 | 61 | 1017.8 |
| 20260510122039 | 63 | 147 | 0.0 | 0.0 | 0.00 | 0.00 | 0.00 | 60 | 1017.7 |
| 20260510121537 | 63 | 146 | 0.0 | 1.7 | 0.00 | 0.00 | 0.00 | 61 | 1017.6 |
| 20260510121036 | 63 | 146 | 0.0 | 1.7 | 0.00 | 0.00 | 0.00 | 62 | 1017.6 |
| 20260510120538 | 63 | 145 | 0.9 | 2.6 | 0.00 | 0.00 | 0.00 | 63 | 1017.5 |
| 20260510120036 | 63 | 147 | 0.0 | 2.6 | 0.00 | 0.00 | 0.00 | 64 | 1017.4 |
| 20260510115534 | 63 | 103 | 0.9 | 2.6 | 0.00 | 0.00 | 0.00 | 66 | 1017.3 |
| 20260510115034 | 63 | 103 | 0.0 | 3.5 | 0.00 | 0.00 | 0.00 | 68 | 1017.3 |
| 20260510114531 | 63 | 103 | 0.0 | 3.5 | 0.00 | 0.00 | 0.00 | 68 | 1017.3 |
| 20260510114030 | 63 | 340 | 0.0 | 0.9 | 0.00 | 0.00 | 0.00 | 72 | 1017.4 |
| 20260510113529 | 63 | 340 | 0.0 | 0.9 | 0.00 | 0.00 | 0.00 | 73 | 1017.3 |
| 20260510113029 | 63 | 340 | 0.0 | 0.9 | 0.00 | 0.00 | 0.00 | 74 | 1017.3 |
| 20260510112531 | 63 | 340 | 0.0 | 0.9 | 0.00 | 0.00 | 0.00 | 74 | 1017.3 |
| 20260510112029 | 63 | 340 | 0.0 | 0.9 | 0.00 | 0.00 | 0.00 | 74 | 1017.3 |
| 20260510111528 | 63 | 340 | 0.0 | 0.0 | 0.00 | 0.00 | 0.00 | 74 | 1017.3 |
| 20260510111027 | 63 | 340 | 0.0 | 0.0 | 0.00 | 0.00 | 0.00 | 74 | 1017.3 |
| 20260510110529 | 63 | 340 | 0.0 | 0.9 | 0.00 | 0.00 | 0.00 | 73 | 1017.3 |
| 20260510110035 | 63 | 340 | 0.0 | 0.9 | 0.00 | 0.00 | 0.00 | 74 | 1017.3 |
| 20260510105526 | 63 | 340 | 0.0 | 0.9 | 0.00 | 0.00 | 0.00 | 74 | 1017.2 |
| 20260510105024 | 63 | 340 | 0.0 | 2.6 | 0.00 | 0.00 | 0.00 | 74 | 1017.2 |
| 20260510104524 | 63 | 340 | 0.9 | 2.6 | 0.00 | 0.00 | 0.00 | 74 | 1017.2 |
| 20260510104025 | 64 | 340 | 0.0 | 0.9 | 0.00 | 0.00 | 0.00 | 74 | 1017.2 |
| 20260510103525 | 64 | 340 | 0.0 | 0.9 | 0.00 | 0.00 | 0.00 | 73 | 1017.3 |
| 20260510103023 | 64 | 340 | 0.0 | 0.0 | 0.00 | 0.00 | 0.00 | 73 | 1017.3 |
| 20260510102523 | 64 | 340 | 0.0 | 0.9 | 0.00 | 0.00 | 0.00 | 73 | 1017.2 |
| 20260510102022 | 64 | 340 | 0.0 | 0.9 | 0.00 | 0.00 | 0.00 | 73 | 1017.1 |
| 20260510101522 | 63 | 340 | 0.0 | 0.9 | 0.00 | 0.00 | 0.00 | 74 | 1017.1 |
| 20260510101021 | 63 | 340 | 0.0 | 0.0 | 0.00 | 0.00 | 0.00 | 73 | 1017.1 |
| 20260510100524 | 63 | 340 | 0.0 | 0.0 | 0.00 | 0.00 | 0.00 | 72 | 1017.1 |
| 20260510100021 | 63 | 340 | 0.0 | 0.0 | 0.00 | 0.00 | 0.00 | 72 | 1017.0 |
| 20260510095520 | 64 | 340 | 0.0 | 0.0 | 0.00 | 0.00 | 0.00 | 70 | 1016.9 |
| 20260510095021 | 64 | 340 | 0.0 | 0.0 | 0.00 | 0.00 | 0.00 | 71 | 1017.0 |
| 20260510094537 | 64 | 340 | 0.0 | 0.0 | 0.00 | 0.00 | 0.00 | 71 | 1017.1 |
| 20260510094015 | 64 | 340 | 0.0 | 0.0 | 0.00 | 0.00 | 0.00 | 71 | 1017.0 |
| 20260510093514 | 64 | 340 | 0.0 | 1.7 | 0.00 | 0.00 | 0.00 | 71 | 1017.0 |
| 20260510093015 | 64 | 340 | 0.0 | 1.7 | 0.00 | 0.00 | 0.00 | 70 | 1017.1 |
| 20260510092517 | 64 | 340 | 0.0 | 1.7 | 0.00 | 0.00 | 0.00 | 70 | 1017.0 |
| 20260510092012 | 64 | 340 | 0.0 | 1.7 | 0.00 | 0.00 | 0.00 | 69 | 1017.1 |
| 20260510091520 | 65 | 340 | 0.0 | 1.7 | 0.00 | 0.00 | 0.00 | 68 | 1016.9 |
| 20260510091011 | 65 | 339 | 0.9 | 2.6 | 0.00 | 0.00 | 0.00 | 68 | 1016.9 |
| 20260510090511 | 65 | 340 | 0.9 | 2.6 | 0.00 | 0.00 | 0.00 | 69 | 1016.8 |
| 20260510090014 | 65 | 340 | 0.0 | 1.7 | 0.00 | 0.00 | 0.00 | 69 | 1016.7 |
| 20260510085510 | 65 | 340 | 0.0 | 2.6 | 0.00 | 0.00 | 0.00 | 69 | 1016.7 |
| 20260510085012 | 65 | 359 | 0.9 | 2.6 | 0.00 | 0.00 | 0.00 | 70 | 1016.7 |
| 20260510084507 | 65 | 340 | 0.0 | 2.6 | 0.00 | 0.00 | 0.00 | 70 | 1016.6 |
| 20260510084007 | 65 | 340 | 0.0 | 0.0 | 0.00 | 0.00 | 0.00 | 72 | 1016.7 |
| 20260510083507 | 65 | 340 | 0.0 | 0.0 | 0.00 | 0.00 | 0.00 | 73 | 1016.7 |
| 20260510083007 | 65 | 340 | 0.0 | 0.0 | 0.00 | 0.00 | 0.00 | 73 | 1016.7 |
| 20260510082505 | 65 | 339 | 0.0 | 0.0 | 0.00 | 0.00 | 0.00 | 70 | 1016.7 |
| 20260510082005 | 65 | 340 | 0.0 | 1.7 | 0.00 | 0.00 | 0.00 | 68 | 1016.7 |
| 20260510081505 | 65 | 340 | 0.0 | 1.7 | 0.00 | 0.00 | 0.00 | 68 | 1016.8 |
| 20260510081005 | 65 | 340 | 0.0 | 0.0 | 0.00 | 0.00 | 0.00 | 68 | 1016.7 |
| 20260510080504 | 65 | 340 | 0.0 | 0.9 | 0.00 | 0.00 | 0.00 | 68 | 1016.8 |
| 20260510080004 | 65 | 340 | 0.0 | 0.9 | 0.00 | 0.00 | 0.00 | 68 | 1016.7 |
| 20260510075503 | 65 | 340 | 0.0 | 0.9 | 0.00 | 0.00 | 0.00 | 68 | 1016.8 |
| 20260510075003 | 65 | 340 | 0.0 | 0.9 | 0.00 | 0.00 | 0.00 | 68 | 1016.9 |
| 20260510074601 | 65 | 359 | 0.0 | 1.7 | 0.00 | 0.00 | 0.00 | 68 | 1016.9 |
| 20260510074101 | 65 | 340 | 0.0 | 1.7 | 0.00 | 0.00 | 0.00 | 69 | 1016.9 |
| 20260510073600 | 65 | 340 | 0.0 | 0.9 | 0.00 | 0.00 | 0.00 | 69 | 1017.0 |
| 20260510073100 | 65 | 359 | 0.0 | 2.6 | 0.00 | 0.00 | 0.00 | 69 | 1016.9 |
| 20260510072559 | 65 | 340 | 0.0 | 2.6 | 0.00 | 0.00 | 0.00 | 70 | 1016.8 |
| 20260510072059 | 66 | 340 | 0.9 | 2.6 | 0.00 | 0.00 | 0.00 | 70 | 1016.8 |
| 20260510071558 | 66 | 340 | 0.0 | 1.7 | 0.00 | 0.00 | 0.00 | 71 | 1016.8 |
| 20260510071056 | 66 | 340 | 0.0 | 1.7 | 0.00 | 0.00 | 0.00 | 71 | 1016.8 |
| 20260510070556 | 66 | 340 | 0.0 | 0.9 | 0.00 | 0.00 | 0.00 | 72 | 1017.0 |
| 20260510070056 | 66 | 340 | 0.0 | 2.6 | 0.00 | 0.00 | 0.00 | 72 | 1016.9 |
| 20260510065559 | 66 | 340 | 0.0 | 2.6 | 0.00 | 0.00 | 0.00 | 72 | 1016.9 |
| 20260510065056 | 66 | 340 | 0.9 | 2.6 | 0.00 | 0.00 | 0.00 | 72 | 1016.9 |
| 20260510064552 | 66 | 340 | 0.9 | 2.6 | 0.00 | 0.00 | 0.00 | 73 | 1016.9 |
| 20260510064051 | 67 | 340 | 0.9 | 2.6 | 0.00 | 0.00 | 0.00 | 73 | 1016.8 |
| 20260510063555 | 67 | 340 | 0.0 | 2.6 | 0.00 | 0.00 | 0.00 | 73 | 1016.9 |
| 20260510063051 | 67 | 340 | 0.0 | 1.7 | 0.00 | 0.00 | 0.00 | 74 | 1016.8 |
| 20260510062550 | 67 | 340 | 0.9 | 1.7 | 0.00 | 0.00 | 0.00 | 74 | 1016.9 |
| 20260510062049 | 67 | 340 | 0.0 | 1.7 | 0.00 | 0.00 | 0.00 | 74 | 1016.9 |
| 20260510061552 | 67 | 340 | 0.9 | 2.6 | 0.00 | 0.00 | 0.00 | 74 | 1017.0 |
| 20260510061048 | 67 | 340 | 0.9 | 1.7 | 0.00 | 0.00 | 0.00 | 74 | 1016.9 |
| 20260510060548 | 67 | 340 | 0.9 | 2.6 | 0.00 | 0.00 | 0.00 | 74 | 1017.1 |
| 20260510060048 | 67 | 340 | 0.9 | 3.5 | 0.00 | 0.00 | 0.00 | 73 | 1017.0 |
| 20260510055546 | 67 | 340 | 0.9 | 3.5 | 0.00 | 0.00 | 0.00 | 73 | 1017.0 |
| 20260510055046 | 68 | 340 | 1.7 | 3.5 | 0.00 | 0.00 | 0.00 | 73 | 1017.1 |
| 20260510054545 | 68 | 340 | 1.7 | 3.5 | 0.00 | 0.00 | 0.00 | 73 | 1017.2 |
| 20260510054042 | 68 | 340 | 0.9 | 3.5 | 0.00 | 0.00 | 0.00 | 73 | 1017.1 |
| 20260510053541 | 68 | 340 | 1.7 | 2.6 | 0.00 | 0.00 | 0.00 | 73 | 1017.2 |
| 20260510053055 | 68 | 340 | 0.9 | 2.6 | 0.00 | 0.00 | 0.00 | 72 | 1017.3 |
| 20260510052540 | 68 | 340 | 0.0 | 1.7 | 0.00 | 0.00 | 0.00 | 72 | 1017.2 |
| 20260510052040 | 69 | 340 | 0.9 | 1.7 | 0.00 | 0.00 | 0.00 | 72 | 1017.2 |
| 20260510051547 | 69 | 359 | 0.0 | 1.7 | 0.00 | 0.00 | 0.00 | 71 | 1017.2 |
| 20260510051039 | 69 | 340 | 0.0 | 1.7 | 0.00 | 0.00 | 0.00 | 71 | 1017.3 |
| 20260510050538 | 69 | 359 | 0.0 | 2.6 | 0.00 | 0.00 | 0.00 | 71 | 1017.3 |
| 20260510050037 | 69 | 340 | 0.9 | 2.6 | 0.00 | 0.00 | 0.00 | 71 | 1017.4 |
| 20260510045538 | 69 | 340 | 0.0 | 0.0 | 0.00 | 0.00 | 0.00 | 71 | 1017.4 |
| 20260510045037 | 69 | 340 | 0.0 | 0.0 | 0.00 | 0.00 | 0.00 | 71 | 1017.4 |
| 20260510044537 | 69 | 340 | 0.0 | 0.0 | 0.00 | 0.00 | 0.00 | 71 | 1017.4 |
| 20260510044034 | 69 | 340 | 0.0 | 1.7 | 0.00 | 0.00 | 0.00 | 71 | 1017.4 |
| 20260510043533 | 69 | 340 | 0.0 | 1.7 | 0.00 | 0.00 | 0.00 | 71 | 1017.4 |
| 20260510043042 | 69 | 340 | 0.9 | 2.6 | 0.00 | 0.00 | 0.00 | 71 | 1017.3 |
| 20260510042533 | 69 | 359 | 0.0 | 2.6 | 0.00 | 0.00 | 0.00 | 71 | 1017.3 |
| 20260510042031 | 69 | 340 | 0.0 | 1.7 | 0.00 | 0.00 | 0.00 | 71 | 1017.2 |
| 20260510041531 | 69 | 340 | 0.0 | 1.7 | 0.00 | 0.00 | 0.00 | 71 | 1017.0 |
| 20260510041030 | 69 | 340 | 0.0 | 1.7 | 0.00 | 0.00 | 0.00 | 71 | 1016.9 |
| 20260510040529 | 69 | 340 | 0.9 | 2.6 | 0.00 | 0.00 | 0.00 | 71 | 1016.8 |
| 20260510040038 | 69 | 340 | 0.9 | 3.5 | 0.00 | 0.00 | 0.00 | 71 | 1016.7 |
| 20260510035529 | 69 | 340 | 0.9 | 3.5 | 0.00 | 0.00 | 0.00 | 71 | 1016.8 |
| 20260510035028 | 69 | 339 | 1.7 | 4.3 | 0.00 | 0.00 | 0.00 | 70 | 1016.8 |
| 20260510034527 | 69 | 335 | 1.7 | 4.3 | 0.00 | 0.00 | 0.00 | 70 | 1016.8 |
| 20260510034024 | 69 | 330 | 1.7 | 4.3 | 0.00 | 0.00 | 0.00 | 69 | 1016.7 |
| 20260510033527 | 70 | 327 | 0.9 | 2.6 | 0.00 | 0.00 | 0.00 | 68 | 1016.7 |
| 20260510033022 | 70 | 326 | 0.9 | 2.6 | 0.00 | 0.00 | 0.00 | 68 | 1016.6 |
| 20260510032522 | 70 | 326 | 0.9 | 2.6 | 0.00 | 0.00 | 0.00 | 69 | 1016.7 |
| 20260510032022 | 70 | 327 | 0.9 | 3.5 | 0.00 | 0.00 | 0.00 | 69 | 1016.8 |
| 20260510031523 | 70 | 326 | 0.9 | 4.3 | 0.00 | 0.00 | 0.00 | 69 | 1016.7 |
| 20260510031020 | 70 | 343 | 1.7 | 4.3 | 0.00 | 0.00 | 0.00 | 68 | 1016.6 |
| 20260510030522 | 71 | 319 | 0.9 | 3.5 | 0.00 | 0.00 | 0.00 | 67 | 1016.7 |
| 20260510030019 | 71 | 318 | 0.9 | 3.5 | 0.00 | 0.00 | 0.00 | 67 | 1016.6 |
| 20260510025518 | 71 | 315 | 1.7 | 3.5 | 0.00 | 0.00 | 0.00 | 66 | 1016.6 |
| 20260510025017 | 71 | 316 | 1.7 | 3.5 | 0.00 | 0.00 | 0.00 | 65 | 1016.7 |
| 20260510024517 | 71 | 324 | 1.7 | 3.5 | 0.00 | 0.00 | 0.00 | 65 | 1016.5 |
| 20260510024045 | 71 | 322 | 0.9 | 3.5 | 0.00 | 0.00 | 0.00 | 64 | 1016.5 |
| 20260510023544 | 71 | 316 | 0.9 | 3.5 | 0.00 | 0.00 | 0.00 | 64 | 1016.5 |
| 20260510023043 | 71 | 325 | 1.7 | 3.5 | 0.00 | 0.00 | 0.00 | 63 | 1016.5 |
| 20260510022543 | 72 | 326 | 0.9 | 4.3 | 0.00 | 0.00 | 0.00 | 63 | 1016.4 |
| 20260510022042 | 72 | 314 | 1.7 | 3.5 | 0.00 | 0.00 | 0.00 | 62 | 1016.4 |
| 20260510021547 | 72 | 288 | 0.9 | 3.5 | 0.00 | 0.00 | 0.00 | 62 | 1016.3 |
| 20260510021037 | 72 | 268 | 0.9 | 3.5 | 0.00 | 0.00 | 0.00 | 62 | 1016.3 |
| 20260510020536 | 72 | 322 | 0.9 | 7.8 | 0.00 | 0.00 | 0.00 | 61 | 1016.3 |
| 20260510020036 | 72 | 25 | 2.6 | 7.8 | 0.00 | 0.00 | 0.00 | 61 | 1016.2 |
| 20260510015534 | 73 | 32 | 1.7 | 7.8 | 0.00 | 0.00 | 0.00 | 60 | 1016.1 |
| 20260510015032 | 73 | 13 | 3.5 | 7.8 | 0.00 | 0.00 | 0.00 | 58 | 1015.8 |
| 20260510014534 | 74 | 350 | 1.7 | 5.2 | 0.00 | 0.00 | 0.00 | 56 | 1015.7 |
| 20260510014031 | 74 | 335 | 1.7 | 7.8 | 0.00 | 0.00 | 0.00 | 55 | 1015.6 |
| 20260510013529 | 75 | 359 | 3.5 | 9.6 | 0.00 | 0.00 | 0.00 | 53 | 1015.6 |
| 20260510013028 | 75 | 359 | 4.3 | 9.6 | 0.00 | 0.00 | 0.00 | 50 | 1015.5 |
| 20260510012529 | 76 | 48 | 2.6 | 9.6 | 0.00 | 0.00 | 0.00 | 48 | 1015.4 |
| 20260510012025 | 76 | 316 | 4.3 | 10.4 | 0.00 | 0.00 | 0.00 | 46 | 1015.4 |
| 20260510011533 | 77 | 349 | 6.1 | 9.6 | 0.00 | 0.00 | 0.00 | 45 | 1015.3 |
| 20260510011021 | 78 | 15 | 4.3 | 8.7 | 0.00 | 0.00 | 0.00 | 41 | 1015.3 |
| 20260510010518 | 81 | 48 | 4.3 | 8.7 | 0.00 | 0.00 | 0.00 | 34 | 1015.2 |
| 20260510010019 | 83 | 77 | 3.5 | 13.0 | 0.00 | 0.00 | 0.00 | 11 | 1015.1 |
| 20260510005516 | 83 | 60 | 5.2 | 13.0 | 0.00 | 0.00 | 0.00 | 10 | 1015.0 |
| 20260510005015 | 83 | 46 | 5.2 | 13.0 | 0.00 | 0.00 | 0.00 | 9 | 1014.9 |
| 20260510004522 | 83 | 48 | 4.3 | 15.6 | 0.00 | 0.00 | 0.00 | 9 | 1014.8 |
| 20260510004016 | 83 | 66 | 7.8 | 15.6 | 0.00 | 0.00 | 0.00 | 9 | 1014.9 |
| 20260510003514 | 84 | 112 | 5.2 | 14.8 | 0.00 | 0.00 | 0.00 | 9 | 1014.7 |
| 20260510003014 | 84 | 65 | 8.7 | 17.4 | 0.00 | 0.00 | 0.00 | 10 | 1014.6 |
| 20260510002514 | 85 | 75 | 7.0 | 17.4 | 0.00 | 0.00 | 0.00 | 10 | 1014.6 |
| 20260510002014 | 85 | 56 | 3.5 | 10.4 | 0.00 | 0.00 | 0.00 | 10 | 1014.6 |
| 20260510001514 | 85 | 45 | 1.7 | 11.3 | 0.00 | 0.00 | 0.00 | 10 | 1014.5 |
| 20260510001014 | 85 | 113 | 4.3 | 12.2 | 0.00 | 0.00 | 0.00 | 10 | 1014.7 |
| 20260510000511 | 85 | 64 | 4.3 | 12.2 | 0.00 | 0.00 | 0.00 | 10 | 1014.5 |
| 20260510000010 | 85 | 40 | 2.6 | 12.2 | 0.00 | 0.00 | 0.00 | 10 | 1014.5 |
| 20260509235513 | 85 | 43 | 3.5 | 13.0 | 0.00 | 0.00 | 0.00 | 10 | 1014.5 |
| 20260509235009 | 85 | 37 | 6.1 | 13.0 | 0.00 | 0.00 | 0.00 | 10 | 1014.5 |
| 20260509234509 | 85 | 76 | 5.2 | 12.2 | 0.00 | 0.00 | 0.00 | 11 | 1014.4 |
| 20260509234013 | 85 | 73 | 4.3 | 9.6 | 0.00 | 0.00 | 0.00 | 10 | 1014.3 |
| 20260509233509 | 86 | 33 | 4.3 | 11.3 | 0.00 | 0.00 | 0.00 | 11 | 1014.4 |
| 20260509233008 | 86 | 73 | 5.2 | 11.3 | 0.00 | 0.00 | 0.00 | 10 | 1014.2 |
| 20260509232508 | 86 | 56 | 3.5 | 9.6 | 0.00 | 0.00 | 0.00 | 11 | 1014.1 |
| 20260509232007 | 86 | 66 | 3.5 | 12.2 | 0.00 | 0.00 | 0.00 | 11 | 1014.3 |
| 20260509231507 | 86 | 67 | 7.0 | 13.9 | 0.00 | 0.00 | 0.00 | 11 | 1014.2 |
| 20260509231011 | 86 | 58 | 1.7 | 13.9 | 0.00 | 0.00 | 0.00 | 11 | 1014.2 |
| 20260509230540 | 85 | 59 | 1.7 | 11.3 | 0.00 | 0.00 | 0.00 | 12 | 1014.2 |
| 20260509230037 | 85 | 77 | 6.1 | 11.3 | 0.00 | 0.00 | 0.00 | 11 | 1014.2 |
| 20260509225537 | 86 | 70 | 6.1 | 11.3 | 0.00 | 0.00 | 0.00 | 12 | 1014.2 |
| 20260509225034 | 86 | 68 | 2.6 | 11.3 | 0.00 | 0.00 | 0.00 | 12 | 1014.4 |
| 20260509224533 | 86 | 81 | 5.2 | 11.3 | 0.00 | 0.00 | 0.00 | 12 | 1014.2 |
| 20260509224033 | 85 | 354 | 0.9 | 10.4 | 0.00 | 0.00 | 0.00 | 13 | 1014.3 |
| 20260509223502 | 84 | 97 | 1.7 | 10.4 | 0.00 | 0.00 | 0.00 | 14 | 1014.4 |
| 20260509223002 | 84 | 77 | 4.3 | 14.8 | 0.00 | 0.00 | 0.00 | 13 | 1014.4 |
| 20260509222501 | 84 | 79 | 3.5 | 13.9 | 0.00 | 0.00 | 0.00 | 14 | 1014.4 |
| 20260509222100 | 85 | 100 | 4.3 | 11.3 | 0.00 | 0.00 | 0.00 | 13 | 1014.5 |
| 20260509221600 | 85 | 37 | 5.2 | 12.2 | 0.00 | 0.00 | 0.00 | 13 | 1014.5 |
| 20260509221059 | 84 | 43 | 5.2 | 12.2 | 0.00 | 0.00 | 0.00 | 14 | 1014.5 |
| 20260509220533 | 83 | 71 | 6.1 | 12.2 | 0.00 | 0.00 | 0.00 | 14 | 1014.6 |
| 20260509220033 | 84 | 50 | 4.3 | 12.2 | 0.00 | 0.00 | 0.00 | 15 | 1014.4 |
| 20260509215532 | 83 | 4 | 7.0 | 12.2 | 0.00 | 0.01 | 0.00 | 15 | 1014.5 |
| 20260509215027 | 84 | 83 | 3.5 | 12.2 | 0.00 | 0.01 | 0.00 | 15 | 1014.5 |
| 20260509214527 | 84 | 90 | 3.5 | 11.3 | 0.00 | 0.01 | 0.00 | 15 | 1014.5 |
| 20260509214026 | 85 | 17 | 4.3 | 11.3 | 0.00 | 0.01 | 0.00 | 15 | 1014.6 |
| 20260509213625 | 84 | 105 | 1.7 | 11.3 | 0.00 | 0.01 | 0.00 | 16 | 1014.5 |
| 20260509213055 | 84 | 43 | 4.3 | 13.9 | 0.00 | 0.01 | 0.00 | 16 | 1014.7 |
| 20260509212555 | 84 | 78 | 2.6 | 16.5 | 0.00 | 0.01 | 0.00 | 16 | 1014.7 |
| 20260509212054 | 85 | 68 | 8.7 | 16.5 | 0.00 | 0.01 | 0.00 | 16 | 1014.8 |
| 20260509211554 | 85 | 74 | 4.3 | 14.8 | 0.00 | 0.01 | 0.00 | 16 | 1014.8 |
| 20260509211053 | 84 | 41 | 6.1 | 14.8 | 0.00 | 0.01 | 0.00 | 17 | 1015.0 |
| 20260509210600 | 84 | 71 | 4.3 | 15.6 | 0.00 | 0.01 | 0.00 | 17 | 1014.8 |
| 20260509210559 | 84 | 56 | 3.5 | 15.6 | 0.00 | 0.01 | 0.00 | 17 | 1014.8 |
| 20260509210025 | 85 | 68 | 7.8 | 15.6 | 0.00 | 0.01 | 0.00 | 16 | 1014.8 |
| 20260509205524 | 85 | 35 | 5.2 | 13.0 | 0.00 | 0.04 | 0.00 | 16 | 1014.8 |
| 20260509205020 | 85 | 59 | 5.2 | 12.2 | 0.00 | 0.04 | 0.00 | 17 | 1014.9 |
| 20260509204519 | 85 | 75 | 5.2 | 13.9 | 0.00 | 0.04 | 0.00 | 18 | 1015.0 |
| 20260509204019 | 84 | 26 | 7.0 | 13.9 | 0.00 | 0.04 | 0.00 | 18 | 1015.1 |
| 20260509203518 | 84 | 45 | 5.2 | 9.6 | 0.00 | 0.04 | 0.00 | 17 | 1015.1 |
| 20260509203058 | 84 | 8 | 4.3 | 10.4 | 0.00 | 0.04 | 0.00 | 17 | 1015.1 |
| 20260509202548 | 85 | 76 | 4.3 | 14.8 | 0.00 | 0.04 | 0.00 | 17 | 1015.1 |
| 20260509202046 | 84 | 61 | 6.1 | 14.8 | 0.00 | 0.04 | 0.00 | 16 | 1015.1 |
| 20260509201545 | 84 | 48 | 5.2 | 11.3 | 0.00 | 0.04 | 0.00 | 17 | 1015.2 |
| 20260509201044 | 84 | 359 | 4.3 | 14.8 | 0.00 | 0.04 | 0.00 | 17 | 1015.1 |
| 20260509200544 | 84 | 87 | 6.1 | 14.8 | 0.00 | 0.04 | 0.00 | 17 | 1015.1 |
| 20260509200030 | 84 | 291 | 5.2 | 12.2 | 0.00 | 0.04 | 0.00 | 17 | 1015.1 |
| 20260509195048 | 83 | 346 | 5.2 | 14.8 | 0.00 | 0.06 | 0.00 | 17 | 1015.2 |
| 20260509194550 | 84 | 67 | 4.3 | 10.4 | 0.00 | 0.06 | 0.00 | 15 | 1015.3 |
| 20260509194048 | 84 | 33 | 2.6 | 11.3 | 0.00 | 0.06 | 0.00 | 20 | 1015.2 |
| 20260509193545 | 85 | 72 | 3.5 | 11.3 | 0.00 | 0.06 | 0.00 | 19 | 1015.2 |
| 20260509193043 | 85 | 37 | 3.5 | 9.6 | 0.00 | 0.06 | 0.00 | 19 | 1015.2 |